�������C�����ː����j�^�v���󋵏��
Date,Time,Cs137(Bq/L),Cs134(Bq/L),�S��(Bq/L)
2018/11/26,00:00,0.43,ND,ND
2018/11/26,00:10,0.43,ND,ND
2018/11/26,00:20,0.43,ND,ND
2018/11/26,00:30,0.43,ND,ND
2018/11/26,00:40,0.44,ND,ND
2018/11/26,00:50,0.40,ND,ND
2018/11/26,01:00,0.40,ND,ND
2018/11/26,01:10,0.39,ND,ND
2018/11/26,01:20,0.38,ND,ND
2018/11/26,01:30,0.36,ND,ND
2018/11/26,01:40,0.35,ND,ND
2018/11/26,01:50,0.36,ND,ND
2018/11/26,02:00,0.35,ND,ND
2018/11/26,02:10,0.34,ND,ND
2018/11/26,02:20,0.34,ND,ND
2018/11/26,02:30,0.34,ND,ND
2018/11/26,02:40,0.32,ND,ND
2018/11/26,02:50,0.33,ND,ND
2018/11/26,03:00,0.40,ND,ND
2018/11/26,03:10,0.39,ND,11
2018/11/26,03:20,0.38,ND,11
2018/11/26,03:30,0.28,ND,ND
2018/11/26,03:40,0.28,ND,ND
2018/11/26,03:50,0.27,ND,ND
2018/11/26,04:00,0.25,ND,ND
2018/11/26,04:10,0.22,ND,ND
2018/11/26,04:20,0.20,ND,ND
2018/11/26,04:30,0.18,ND,ND
2018/11/26,04:40,0.16,ND,ND
2018/11/26,04:50,0.15,ND,ND
2018/11/26,05:00,0.13,ND,ND
2018/11/26,05:10,0.20,ND,ND
2018/11/26,05:20,0.20,ND,ND
2018/11/26,05:30,0.19,ND,ND
2018/11/26,05:40,0.19,ND,ND
2018/11/26,05:50,0.16,ND,ND
2018/11/26,06:00,0.18,ND,ND
2018/11/26,06:10,0.13,ND,ND
2018/11/26,06:20,0.14,ND,ND
2018/11/26,06:30,0.15,ND,ND
2018/11/26,06:40,0.13,ND,ND
2018/11/26,06:50,0.15,ND,ND
2018/11/26,07:00,0.15,ND,ND
2018/11/26,07:10,0.16,ND,ND
2018/11/26,07:20,0.15,ND,ND
2018/11/26,07:30,0.18,ND,ND
2018/11/26,07:40,0.20,ND,ND
2018/11/26,07:50,0.21,ND,ND
2018/11/26,08:00,0.22,ND,ND
2018/11/26,08:10,0.24,ND,ND
2018/11/26,08:20,0.26,ND,ND
2018/11/26,08:30,0.27,ND,ND
2018/11/26,08:40,0.28,ND,ND
2018/11/26,08:50,0.29,ND,ND
2018/11/26,09:00,0.35,ND,ND
2018/11/26,09:10,0.35,ND,ND
2018/11/26,09:20,0.27,ND,ND
2018/11/26,09:30,0.36,ND,ND
2018/11/26,09:40,0.28,ND,ND
2018/11/26,09:50,0.27,ND,ND
2018/11/26,10:00,0.26,ND,ND
2018/11/26,10:10,0.26,ND,ND
2018/11/26,10:20,0.26,ND,ND
2018/11/26,10:30,0.26,ND,ND
2018/11/26,10:40,0.24,ND,ND
2018/11/26,10:50,0.24,ND,ND
2018/11/26,11:00,0.27,ND,ND
2018/11/26,11:10,0.27,ND,ND
2018/11/26,11:20,0.28,ND,ND
2018/11/26,11:30,0.27,ND,ND
2018/11/26,11:40,0.37,ND,ND
2018/11/26,11:50,0.29,ND,ND
2018/11/26,12:00,0.28,ND,ND
2018/11/26,12:10,0.30,ND,ND
2018/11/26,12:20,0.35,ND,ND
2018/11/26,12:30,0.28,ND,ND
2018/11/26,12:40,0.27,ND,10
2018/11/26,12:50,0.28,ND,9.2
2018/11/26,13:00,0.25,ND,8.9
2018/11/26,13:10,0.22,ND,11
2018/11/26,13:20,0.24,ND,12
2018/11/26,13:30,0.23,ND,13
2018/11/26,13:40,0.22,ND,9.5
2018/11/26,13:50,0.22,ND,ND
2018/11/26,14:00,0.23,ND,ND
2018/11/26,14:10,0.23,ND,ND
2018/11/26,14:20,0.23,ND,ND
2018/11/26,14:30,0.29,ND,ND
2018/11/26,14:40,0.29,ND,ND
2018/11/26,14:50,0.21,ND,ND
2018/11/26,15:00,0.21,ND,ND
2018/11/26,15:10,0.21,ND,ND
2018/11/26,15:20,0.28,ND,ND
2018/11/26,15:30,0.27,ND,ND
2018/11/26,15:40,0.20,ND,ND
2018/11/26,15:50,0.18,ND,ND
2018/11/26,16:00,0.18,ND,ND
2018/11/26,16:10,0.17,ND,ND
2018/11/26,16:20,0.22,ND,ND
2018/11/26,16:30,0.17,ND,ND
2018/11/26,16:40,0.15,ND,ND
2018/11/26,16:50,0.16,ND,ND
2018/11/26,17:00,0.14,ND,ND
2018/11/26,17:10,0.15,ND,ND
2018/11/26,17:20,0.12,ND,ND
2018/11/26,17:30,0.12,ND,ND
2018/11/26,17:40,0.13,ND,ND
2018/11/26,17:50,0.11,ND,ND
2018/11/26,18:00,0.14,ND,ND
2018/11/26,18:10,0.13,ND,ND
2018/11/26,18:20,0.14,ND,ND
2018/11/26,18:30,0.13,ND,ND
2018/11/26,18:40,0.13,ND,ND
2018/11/26,18:50,0.14,ND,ND
2018/11/26,19:00,0.13,ND,ND
2018/11/26,19:10,0.14,ND,ND
2018/11/26,19:20,0.16,ND,ND
2018/11/26,19:30,0.19,ND,ND
2018/11/26,19:40,0.22,ND,ND
2018/11/26,19:50,0.26,ND,ND
2018/11/26,20:00,0.29,ND,ND
2018/11/26,20:10,0.31,ND,ND
2018/11/26,20:20,0.35,ND,ND
2018/11/26,20:30,0.35,ND,ND
2018/11/26,20:40,0.38,ND,9.3
2018/11/26,20:50,0.40,ND,ND
2018/11/26,21:00,0.45,ND,ND
2018/11/26,21:10,0.46,ND,ND
2018/11/26,21:20,0.49,ND,ND
2018/11/26,21:30,0.53,ND,ND
2018/11/26,21:40,0.55,ND,ND
2018/11/26,21:50,0.65,ND,ND
2018/11/26,22:00,0.69,ND,ND
2018/11/26,22:10,0.72,ND,ND
2018/11/26,22:20,0.73,ND,ND
2018/11/26,22:30,0.74,ND,ND
2018/11/26,22:40,0.75,ND,ND
2018/11/26,22:50,0.66,ND,ND
2018/11/26,23:00,0.64,ND,ND
2018/11/26,23:10,0.65,ND,ND
2018/11/26,23:20,0.65,ND,ND
2018/11/26,23:30,0.66,ND,ND
2018/11/26,23:40,0.67,ND,ND
2018/11/26,23:50,0.67,ND,ND
